| time (UTC) | temp F | wind direction | speed MPH | gust MPH | rain 1hr in | rain 24hr in | rain mn in | humidity % | barometer mb |
| 20260831134949 | 70 | 256 | 0.0 | 0.0 | 0.00 | 0.00 | 0.00 | 85 | 1025.8 |
| 20260831134446 | 69 | 312 | 0.0 | 0.0 | 0.00 | 0.00 | 0.00 | 87 | 1025.8 |
| 20260831133945 | 69 | 65 | 2.0 | 3.0 | 0.00 | 0.00 | 0.00 | 87 | 1025.9 |
| 20260831133440 | 69 | 60 | 2.0 | 2.0 | 0.00 | 0.00 | 0.00 | 87 | 1025.6 |
| 20260831132935 | 69 | 89 | 0.0 | 2.0 | 0.00 | 0.00 | 0.00 | 87 | 1025.6 |
| 20260831132431 | 69 | 33 | 3.0 | 3.0 | 0.00 | 0.00 | 0.00 | 88 | 1025.7 |
| 20260831131930 | 68 | 13 | 0.0 | 1.0 | 0.00 | 0.00 | 0.00 | 88 | 1025.7 |
| 20260831131425 | 68 | 69 | 0.0 | 2.0 | 0.00 | 0.00 | 0.00 | 88 | 1025.8 |
| 20260831130921 | 68 | 142 | 0.0 | 0.0 | 0.00 | 0.00 | 0.00 | 90 | 1025.9 |
| 20260831130411 | 68 | 37 | 0.0 | 2.0 | 0.00 | 0.00 | 0.00 | 90 | 1025.7 |
| 20260831125910 | 67 | 341 | 1.0 | 2.0 | 0.00 | 0.00 | 0.00 | 92 | 1025.8 |
| 20260831125405 | 67 | 55 | 0.0 | 2.0 | 0.00 | 0.00 | 0.00 | 93 | 1025.6 |
| 20260831124901 | 67 | 65 | 2.0 | 2.0 | 0.00 | 0.00 | 0.00 | 95 | 1025.7 |
| 20260831124356 | 66 | 53 | 2.0 | 2.0 | 0.00 | 0.00 | 0.00 | 97 | 1025.8 |
| 20260831123851 | 66 | 11 | 3.0 | 3.0 | 0.00 | 0.00 | 0.00 | 97 | 1025.7 |
| 20260831123349 | 66 | 334 | 0.0 | 2.0 | 0.00 | 0.00 | 0.00 | 97 | 1025.6 |
| 20260831122839 | 66 | 1 | 0.0 | 1.0 | 0.00 | 0.00 | 0.00 | 97 | 1025.7 |
| 20260831122335 | 65 | 50 | 0.0 | 0.0 | 0.00 | 0.00 | 0.00 | 97 | 1025.6 |
| 20260831121834 | 65 | 27 | 0.0 | 1.0 | 0.00 | 0.00 | 0.00 | 97 | 1025.6 |
| 20260831121331 | 65 | 37 | 0.0 | 1.0 | 0.00 | 0.00 | 0.00 | 97 | 1025.5 |
| 20260831120826 | 65 | 322 | 0.0 | 0.0 | 0.00 | 0.00 | 0.00 | 97 | 1025.6 |
| 20260831120320 | 65 | 322 | 0.0 | 0.0 | 0.00 | 0.00 | 0.00 | 97 | 1025.4 |
| 20260831115815 | 65 | 44 | 0.0 | 1.0 | 0.00 | 0.00 | 0.00 | 97 | 1025.3 |
| 20260831115312 | 65 | 49 | 0.0 | 1.0 | 0.00 | 0.00 | 0.00 | 97 | 1025.2 |
| 20260831114811 | 65 | 40 | 1.0 | 2.0 | 0.00 | 0.00 | 0.00 | 97 | 1025.5 |
| 20260831114310 | 64 | 51 | 2.0 | 2.0 | 0.00 | 0.00 | 0.00 | 97 | 1025.5 |
| 20260831113806 | 65 | 50 | 0.0 | 0.0 | 0.00 | 0.00 | 0.00 | 97 | 1025.4 |
| 20260831113306 | 64 | 315 | 0.0 | 0.0 | 0.00 | 0.00 | 0.00 | 97 | 1025.2 |
| 20260831112800 | 64 | 315 | 0.0 | 0.0 | 0.00 | 0.00 | 0.00 | 97 | 1025.3 |
| 20260831112255 | 64 | 246 | 0.0 | 1.0 | 0.00 | 0.00 | 0.00 | 97 | 1025.1 |
| 20260831111750 | 64 | 341 | 0.0 | 0.0 | 0.00 | 0.00 | 0.00 | 97 | 1025.2 |
| 20260831111247 | 64 | 344 | 0.0 | 1.0 | 0.00 | 0.00 | 0.00 | 97 | 1025.1 |
| 20260831110743 | 64 | 180 | 0.0 | 1.0 | 0.00 | 0.00 | 0.00 | 97 | 1025.0 |
| 20260831110237 | 64 | 344 | 0.0 | 1.0 | 0.00 | 0.00 | 0.00 | 97 | 1025.1 |
| 20260831105736 | 64 | 354 | 2.0 | 2.0 | 0.00 | 0.00 | 0.00 | 97 | 1025.0 |
| 20260831105232 | 64 | 331 | 1.0 | 2.0 | 0.00 | 0.00 | 0.00 | 97 | 1024.8 |
| 20260831104726 | 64 | 342 | 2.0 | 2.0 | 0.00 | 0.00 | 0.00 | 97 | 1025.0 |
| 20260831104224 | 64 | 348 | 0.0 | 1.0 | 0.00 | 0.00 | 0.00 | 97 | 1024.6 |
| 20260831103723 | 63 | 20 | 1.0 | 1.0 | 0.00 | 0.00 | 0.00 | 97 | 1025.1 |
| 20260831103219 | 64 | 329 | 0.0 | 0.0 | 0.02 | 0.00 | 0.00 | 97 | 1024.9 |
| 20260831102718 | 64 | 217 | 0.0 | 0.0 | 0.02 | 0.00 | 0.00 | 97 | 1024.9 |
| 20260831102214 | 64 | 19 | 0.0 | 0.0 | 0.00 | 0.00 | 0.00 | 97 | 1024.8 |
| 20260831101709 | 64 | 19 | 0.0 | 0.0 | 0.00 | 0.00 | 0.00 | 97 | 1024.6 |
| 20260831101204 | 64 | 18 | 0.0 | 0.0 | 0.00 | 0.00 | 0.00 | 97 | 1024.9 |
| 20260831100700 | 64 | 37 | 0.0 | 1.0 | 0.00 | 0.00 | 0.00 | 97 | 1024.9 |
| 20260831100156 | 64 | 315 | 0.0 | 0.0 | 0.00 | 0.00 | 0.00 | 97 | 1025.0 |
| 20260831095654 | 64 | 315 | 0.0 | 0.0 | 0.00 | 0.00 | 0.00 | 97 | 1024.9 |
| 20260831095149 | 64 | 319 | 0.0 | 1.0 | 0.00 | 0.00 | 0.00 | 97 | 1024.8 |
| 20260831094644 | 64 | 308 | 0.0 | 1.0 | 0.00 | 0.00 | 0.00 | 97 | 1024.8 |
| 20260831094140 | 64 | 52 | 0.0 | 1.0 | 0.00 | 0.00 | 0.00 | 97 | 1024.7 |
| 20260831093636 | 64 | 330 | 0.0 | 1.0 | 0.00 | 0.00 | 0.00 | 97 | 1024.9 |
| 20260831093132 | 64 | 339 | 0.0 | 0.0 | 0.00 | 0.00 | 0.00 | 97 | 1024.6 |
| 20260831092628 | 64 | 339 | 0.0 | 0.0 | 0.00 | 0.00 | 0.00 | 97 | 1024.7 |
| 20260831092123 | 65 | 37 | 0.0 | 1.0 | 0.00 | 0.00 | 0.00 | 97 | 1024.8 |
| 20260831091623 | 64 | 68 | 1.0 | 2.0 | 0.00 | 0.00 | 0.00 | 97 | 1024.6 |
| 20260831091118 | 64 | 50 | 0.0 | 0.0 | 0.00 | 0.00 | 0.00 | 97 | 1024.6 |
| 20260831090614 | 64 | 283 | 0.0 | 0.0 | 0.00 | 0.00 | 0.00 | 97 | 1024.7 |
| 20260831090110 | 64 | 322 | 0.0 | 0.0 | 0.00 | 0.00 | 0.00 | 97 | 1024.6 |
| 20260831085605 | 64 | 309 | 0.0 | 0.0 | 0.00 | 0.00 | 0.00 | 97 | 1024.6 |
| 20260831085100 | 64 | 66 | 0.0 | 0.0 | 0.00 | 0.00 | 0.00 | 97 | 1024.4 |
| 20260831084556 | 64 | 352 | 0.0 | 0.0 | 0.00 | 0.00 | 0.00 | 97 | 1024.6 |
| 20260831084052 | 64 | 309 | 0.0 | 0.0 | 0.00 | 0.00 | 0.00 | 97 | 1024.4 |
| 20260831083547 | 64 | 309 | 0.0 | 0.0 | 0.00 | 0.00 | 0.00 | 97 | 1024.4 |
| 20260831083036 | 65 | 309 | 0.0 | 0.0 | 0.00 | 0.00 | 0.00 | 97 | 1024.7 |
| 20260831082530 | 65 | 314 | 0.0 | 0.0 | 0.00 | 0.00 | 0.00 | 97 | 1024.4 |
| 20260831082025 | 64 | 50 | 0.0 | 0.0 | 0.00 | 0.00 | 0.00 | 97 | 1024.4 |
| 20260831081521 | 65 | 217 | 0.0 | 0.0 | 0.00 | 0.00 | 0.00 | 97 | 1024.6 |
| 20260831081017 | 65 | 217 | 0.0 | 0.0 | 0.00 | 0.00 | 0.00 | 97 | 1024.4 |
| 20260831080516 | 65 | 322 | 0.0 | 0.0 | 0.00 | 0.00 | 0.00 | 97 | 1024.3 |
| 20260831080012 | 65 | 322 | 0.0 | 0.0 | 0.00 | 0.00 | 0.00 | 97 | 1024.3 |
| 20260831075507 | 65 | 326 | 0.0 | 0.0 | 0.00 | 0.00 | 0.00 | 97 | 1024.3 |
| 20260831075003 | 66 | 322 | 0.0 | 0.0 | 0.00 | 0.00 | 0.00 | 97 | 1024.3 |
| 20260831074502 | 66 | 358 | 1.0 | 2.0 | 0.00 | 0.00 | 0.00 | 97 | 1024.1 |
| 20260831073957 | 66 | 44 | 0.0 | 0.0 | 0.00 | 0.00 | 0.00 | 97 | 1024.2 |
| 20260831073457 | 66 | 16 | 1.0 | 2.0 | 0.00 | 0.00 | 0.00 | 97 | 1024.1 |
| 20260831072955 | 66 | 339 | 0.0 | 2.0 | 0.00 | 0.00 | 0.00 | 97 | 1024.1 |
| 20260831072452 | 66 | 8 | 2.0 | 2.0 | 0.00 | 0.00 | 0.00 | 97 | 1024.1 |
| 20260831071948 | 66 | 12 | 0.0 | 1.0 | 0.00 | 0.00 | 0.00 | 97 | 1024.0 |
| 20260831071446 | 66 | 29 | 1.0 | 2.0 | 0.00 | 0.00 | 0.00 | 97 | 1024.1 |
| 20260831070941 | 66 | 13 | 0.0 | 0.0 | 0.00 | 0.00 | 0.00 | 97 | 1024.4 |
| 20260831070435 | 66 | 129 | 0.0 | 0.0 | 0.00 | 0.00 | 0.00 | 97 | 1024.1 |
| 20260831065935 | 66 | 218 | 0.0 | 1.0 | 0.00 | 0.00 | 0.00 | 97 | 1024.2 |
| 20260831065433 | 66 | 244 | 2.0 | 2.0 | 0.00 | 0.00 | 0.00 | 97 | 1024.1 |
| 20260831064927 | 67 | 6 | 0.0 | 0.0 | 0.00 | 0.00 | 0.00 | 97 | 1024.4 |
| 20260831064422 | 67 | 13 | 0.0 | 0.0 | 0.00 | 0.00 | 0.00 | 97 | 1024.4 |
| 20260831063918 | 67 | 5 | 0.0 | 0.0 | 0.00 | 0.00 | 0.00 | 97 | 1024.6 |
| 20260831063413 | 67 | 13 | 0.0 | 0.0 | 0.00 | 0.00 | 0.00 | 97 | 1024.4 |
| 20260831062908 | 67 | 37 | 0.0 | 0.0 | 0.00 | 0.00 | 0.00 | 97 | 1024.7 |
| 20260831062403 | 67 | 217 | 0.0 | 1.0 | 0.00 | 0.00 | 0.00 | 97 | 1024.4 |
| 20260831061902 | 67 | 53 | 0.0 | 0.0 | 0.00 | 0.00 | 0.00 | 97 | 1024.4 |
| 20260831061401 | 67 | 89 | 0.0 | 1.0 | 0.00 | 0.00 | 0.00 | 97 | 1024.4 |
| 20260831060858 | 67 | 55 | 0.0 | 0.0 | 0.00 | 0.00 | 0.00 | 96 | 1024.6 |
| 20260831060357 | 67 | 55 | 0.0 | 0.0 | 0.00 | 0.00 | 0.00 | 96 | 1024.7 |
| 20260831055851 | 67 | 322 | 0.0 | 0.0 | 0.00 | 0.00 | 0.00 | 96 | 1024.7 |
| 20260831055346 | 67 | 336 | 0.0 | 0.0 | 0.00 | 0.00 | 0.00 | 96 | 1024.7 |
| 20260831054842 | 67 | 345 | 0.0 | 0.0 | 0.00 | 0.00 | 0.00 | 96 | 1024.7 |
| 20260831054337 | 67 | 315 | 0.0 | 0.0 | 0.00 | 0.00 | 0.00 | 96 | 1024.9 |
| 20260831053836 | 67 | 329 | 0.0 | 0.0 | 0.00 | 0.00 | 0.00 | 96 | 1024.7 |
| 20260831053335 | 68 | 309 | 0.0 | 0.0 | 0.00 | 0.00 | 0.00 | 95 | 1024.8 |
| 20260831052829 | 68 | 230 | 0.0 | 0.0 | 0.00 | 0.00 | 0.00 | 95 | 1024.7 |
| 20260831052329 | 68 | 269 | 0.0 | 1.0 | 0.00 | 0.00 | 0.00 | 96 | 1024.9 |
| 20260831051827 | 68 | 300 | 1.0 | 2.0 | 0.00 | 0.00 | 0.00 | 95 | 1025.0 |
| 20260831051326 | 68 | 86 | 1.0 | 2.0 | 0.00 | 0.00 | 0.00 | 95 | 1024.7 |
| 20260831050821 | 69 | 110 | 0.0 | 2.0 | 0.00 | 0.00 | 0.00 | 95 | 1024.7 |
| 20260831050320 | 69 | 322 | 0.0 | 0.0 | 0.00 | 0.00 | 0.00 | 95 | 1025.0 |
| 20260831045814 | 69 | 339 | 0.0 | 3.0 | 0.00 | 0.00 | 0.00 | 95 | 1024.9 |
| 20260831045308 | 69 | 350 | 2.0 | 3.0 | 0.00 | 0.00 | 0.00 | 95 | 1024.9 |
| 20260831044804 | 69 | 265 | 1.0 | 1.0 | 0.00 | 0.00 | 0.00 | 95 | 1024.9 |
| 20260831044258 | 69 | 3 | 0.0 | 0.0 | 0.00 | 0.00 | 0.00 | 95 | 1025.0 |
| 20260831043754 | 69 | 315 | 0.0 | 1.0 | 0.00 | 0.00 | 0.00 | 95 | 1025.1 |
| 20260831043248 | 69 | 310 | 0.0 | 2.0 | 0.00 | 0.00 | 0.00 | 95 | 1025.2 |
| 20260831042748 | 69 | 44 | 0.0 | 1.0 | 0.00 | 0.00 | 0.00 | 95 | 1025.1 |
| 20260831042243 | 69 | 55 | 0.0 | 1.0 | 0.00 | 0.00 | 0.00 | 95 | 1025.2 |
| 20260831041739 | 69 | 311 | 0.0 | 2.0 | 0.00 | 0.00 | 0.00 | 95 | 1025.3 |
| 20260831041238 | 69 | 289 | 1.0 | 2.0 | 0.00 | 0.00 | 0.00 | 95 | 1025.1 |
| 20260831040733 | 69 | 256 | 1.0 | 2.0 | 0.00 | 0.00 | 0.00 | 96 | 1025.2 |
| 20260831040232 | 69 | 218 | 0.0 | 0.0 | 0.00 | 0.00 | 0.00 | 96 | 1025.3 |
| 20260831035731 | 69 | 217 | 0.0 | 0.0 | 0.00 | 0.00 | 0.00 | 96 | 1025.5 |
| 20260831035230 | 69 | 230 | 0.0 | 1.0 | 0.00 | 0.00 | 0.00 | 96 | 1025.7 |
| 20260831034729 | 69 | 37 | 0.0 | 0.0 | 0.00 | 0.00 | 0.00 | 96 | 1025.6 |
| 20260831034225 | 69 | 240 | 0.0 | 0.0 | 0.00 | 0.00 | 0.00 | 96 | 1025.4 |
| 20260831033720 | 69 | 233 | 0.0 | 1.0 | 0.00 | 0.00 | 0.00 | 96 | 1025.6 |
| 20260831033220 | 69 | 307 | 0.0 | 0.0 | 0.00 | 0.00 | 0.00 | 96 | 1025.6 |
| 20260831032716 | 69 | 359 | 0.0 | 1.0 | 0.00 | 0.00 | 0.00 | 95 | 1025.4 |
| 20260831032211 | 69 | 325 | 0.0 | 1.0 | 0.00 | 0.00 | 0.00 | 95 | 1025.4 |
| 20260831031710 | 69 | 0 | 0.0 | 0.0 | 0.00 | 0.00 | 0.00 | 95 | 1025.5 |
| 20260831031205 | 69 | 336 | 0.0 | 1.0 | 0.00 | 0.00 | 0.00 | 95 | 1025.3 |
| 20260831030704 | 69 | 37 | 0.0 | 0.0 | 0.00 | 0.00 | 0.00 | 95 | 1025.4 |
| 20260831030203 | 69 | 336 | 0.0 | 0.0 | 0.00 | 0.00 | 0.00 | 95 | 1025.4 |
| 20260831025701 | 69 | 345 | 0.0 | 0.0 | 0.00 | 0.00 | 0.00 | 95 | 1025.3 |
| 20260831025156 | 69 | 345 | 0.0 | 0.0 | 0.00 | 0.00 | 0.00 | 95 | 1025.4 |
| 20260831024653 | 69 | 315 | 0.0 | 1.0 | 0.00 | 0.00 | 0.00 | 95 | 1025.3 |
| 20260831024151 | 69 | 340 | 0.0 | 1.0 | 0.00 | 0.00 | 0.00 | 95 | 1025.4 |
| 20260831023650 | 69 | 264 | 1.0 | 1.0 | 0.00 | 0.00 | 0.00 | 95 | 1025.3 |
| 20260831023149 | 69 | 339 | 0.0 | 1.0 | 0.00 | 0.00 | 0.00 | 95 | 1025.4 |
| 20260831022644 | 69 | 0 | 2.0 | 2.0 | 0.00 | 0.00 | 0.00 | 96 | 1025.4 |
| 20260831022134 | 69 | 351 | 0.0 | 0.0 | 0.00 | 0.00 | 0.00 | 96 | 1025.5 |
| 20260831021633 | 69 | 37 | 0.0 | 0.0 | 0.00 | 0.00 | 0.00 | 96 | 1025.2 |
| 20260831021128 | 69 | 6 | 0.0 | 0.0 | 0.00 | 0.00 | 0.00 | 96 | 1025.2 |
| 20260831020624 | 69 | 2 | 1.0 | 1.0 | 0.00 | 0.00 | 0.00 | 96 | 1025.3 |
| 20260831020118 | 69 | 0 | 1.0 | 1.0 | 0.00 | 0.00 | 0.00 | 96 | 1025.2 |
| 20260831015614 | 69 | 55 | 0.0 | 0.0 | 0.00 | 0.00 | 0.00 | 96 | 1025.1 |
| 20260831015108 | 69 | 339 | 0.0 | 0.0 | 0.00 | 0.00 | 0.00 | 96 | 1025.2 |
| 20260831014603 | 69 | 0 | 0.0 | 1.0 | 0.00 | 0.00 | 0.00 | 96 | 1025.1 |
| 20260831014058 | 69 | 316 | 1.0 | 1.0 | 0.00 | 0.00 | 0.00 | 96 | 1024.9 |
| 20260831013555 | 69 | 315 | 0.0 | 0.0 | 0.00 | 0.00 | 0.00 | 96 | 1025.0 |
| 20260831013054 | 69 | 315 | 0.0 | 0.0 | 0.00 | 0.00 | 0.00 | 96 | 1025.2 |
| 20260831012549 | 69 | 288 | 0.0 | 1.0 | 0.00 | 0.00 | 0.00 | 96 | 1025.3 |
| 20260831012044 | 69 | 326 | 0.0 | 0.0 | 0.00 | 0.00 | 0.00 | 95 | 1025.3 |
| 20260831011543 | 69 | 0 | 0.0 | 1.0 | 0.00 | 0.00 | 0.00 | 95 | 1025.3 |
| 20260831011039 | 69 | 309 | 0.0 | 0.0 | 0.00 | 0.00 | 0.00 | 95 | 1025.3 |
| 20260831010534 | 69 | 129 | 0.0 | 0.0 | 0.00 | 0.00 | 0.00 | 95 | 1024.9 |
| 20260831010030 | 69 | 46 | 1.0 | 1.0 | 0.00 | 0.00 | 0.00 | 95 | 1025.1 |
| 20260831005525 | 69 | 309 | 0.0 | 0.0 | 0.00 | 0.00 | 0.00 | 95 | 1024.8 |
| 20260831005024 | 69 | 246 | 0.0 | 0.0 | 0.00 | 0.00 | 0.00 | 94 | 1024.9 |
| 20260831004521 | 69 | 322 | 0.0 | 0.0 | 0.00 | 0.00 | 0.00 | 94 | 1024.8 |
| 20260831004016 | 69 | 309 | 1.0 | 1.0 | 0.00 | 0.00 | 0.00 | 94 | 1024.6 |
| 20260831003512 | 69 | 246 | 0.0 | 0.0 | 0.00 | 0.00 | 0.00 | 93 | 1024.3 |
| 20260831003008 | 70 | 246 | 0.0 | 0.0 | 0.00 | 0.00 | 0.00 | 93 | 1024.4 |
| 20260831002506 | 70 | 309 | 0.0 | 0.0 | 0.00 | 0.00 | 0.00 | 92 | 1024.2 |
| 20260831002001 | 70 | 309 | 0.0 | 0.0 | 0.00 | 0.00 | 0.00 | 92 | 1024.0 |
| 20260831001456 | 71 | 309 | 0.0 | 0.0 | 0.00 | 0.00 | 0.00 | 91 | 1024.1 |
| 20260831000954 | 71 | 263 | 1.0 | 2.0 | 0.00 | 0.00 | 0.00 | 91 | 1023.6 |
| 20260831000449 | 71 | 235 | 0.0 | 0.0 | 0.00 | 0.00 | 0.00 | 90 | 1023.9 |
| 20260830235947 | 72 | 263 | 0.0 | 1.0 | 0.00 | 0.00 | 0.00 | 89 | 1024.0 |
| 20260830235443 | 72 | 321 | 0.0 | 2.0 | 0.00 | 0.00 | 0.00 | 88 | 1024.0 |
| 20260830234938 | 72 | 15 | 0.0 | 2.0 | 0.00 | 0.00 | 0.00 | 87 | 1023.9 |
| 20260830234433 | 73 | 265 | 2.0 | 2.0 | 0.00 | 0.00 | 0.00 | 86 | 1023.6 |
| 20260830233929 | 73 | 291 | 2.0 | 3.0 | 0.00 | 0.00 | 0.00 | 85 | 1023.5 |
| 20260830233424 | 74 | 12 | 2.0 | 3.0 | 0.00 | 0.00 | 0.00 | 84 | 1023.8 |
| 20260830232919 | 75 | 24 | 1.0 | 2.0 | 0.00 | 0.00 | 0.00 | 83 | 1023.7 |
| 20260830232415 | 75 | 283 | 2.0 | 3.0 | 0.00 | 0.00 | 0.00 | 81 | 1023.6 |
| 20260830231912 | 76 | 281 | 0.0 | 1.0 | 0.00 | 0.00 | 0.00 | 79 | 1023.7 |
| 20260830231407 | 76 | 321 | 0.0 | 1.0 | 0.00 | 0.00 | 0.00 | 78 | 1023.7 |
| 20260830230906 | 77 | 315 | 1.0 | 2.0 | 0.00 | 0.00 | 0.00 | 77 | 1023.6 |
| 20260830230402 | 77 | 269 | 2.0 | 2.0 | 0.00 | 0.00 | 0.00 | 75 | 1023.7 |
| 20260830225901 | 78 | 269 | 2.0 | 2.0 | 0.00 | 0.00 | 0.00 | 73 | 1023.5 |
| 20260830225356 | 78 | 242 | 0.0 | 0.0 | 0.00 | 0.00 | 0.00 | 72 | 1023.6 |
| 20260830224850 | 78 | 322 | 0.0 | 0.0 | 0.00 | 0.00 | 0.00 | 71 | 1023.7 |
| 20260830224349 | 78 | 281 | 0.0 | 0.0 | 0.00 | 0.00 | 0.00 | 72 | 1023.9 |
| 20260830223847 | 78 | 309 | 0.0 | 0.0 | 0.00 | 0.00 | 0.00 | 71 | 1024.0 |
| 20260830223343 | 78 | 247 | 0.0 | 2.0 | 0.00 | 0.00 | 0.00 | 70 | 1023.9 |
| 20260830222842 | 80 | 257 | 2.0 | 3.0 | 0.00 | 0.00 | 0.00 | 67 | 1023.8 |
| 20260830222337 | 80 | 265 | 2.0 | 3.0 | 0.00 | 0.00 | 0.00 | 65 | 1024.0 |
| 20260830221838 | 80 | 255 | 2.0 | 2.0 | 0.00 | 0.00 | 0.00 | 65 | 1024.0 |
| 20260830221334 | 80 | 252 | 2.0 | 3.0 | 0.00 | 0.00 | 0.00 | 66 | 1023.8 |
| 20260830220830 | 80 | 233 | 3.0 | 3.0 | 0.00 | 0.00 | 0.00 | 65 | 1024.0 |
| 20260830220329 | 82 | 223 | 2.0 | 3.0 | 0.00 | 0.00 | 0.00 | 63 | 1024.1 |
| 20260830215827 | 79 | 297 | 0.0 | 1.0 | 0.00 | 0.00 | 0.00 | 69 | 1023.8 |
| 20260830215322 | 76 | 44 | 2.0 | 3.0 | 0.00 | 0.00 | 0.00 | 73 | 1024.0 |
| 20260830214817 | 77 | 354 | 3.0 | 4.0 | 0.00 | 0.00 | 0.00 | 73 | 1024.1 |
| 20260830214312 | 77 | 18 | 3.0 | 8.0 | 0.00 | 0.00 | 0.00 | 73 | 1023.9 |
| 20260830213811 | 77 | 70 | 5.0 | 8.0 | 0.00 | 0.00 | 0.00 | 72 | 1024.1 |
| 20260830213307 | 77 | 51 | 4.0 | 5.0 | 0.00 | 0.00 | 0.00 | 73 | 1024.3 |
| 20260830212803 | 76 | 8 | 3.0 | 5.0 | 0.00 | 0.00 | 0.00 | 75 | 1024.3 |
| 20260830212258 | 77 | 96 | 3.0 | 8.0 | 0.00 | 0.00 | 0.00 | 73 | 1024.1 |
| 20260830211757 | 77 | 69 | 5.0 | 8.0 | 0.00 | 0.00 | 0.00 | 74 | 1024.2 |
| 20260830211256 | 77 | 14 | 2.0 | 4.0 | 0.00 | 0.00 | 0.00 | 77 | 1024.6 |
| 20260830210753 | 77 | 333 | 0.0 | 4.0 | 0.00 | 0.00 | 0.00 | 78 | 1024.3 |
| 20260830210251 | 77 | 59 | 1.0 | 3.0 | 0.00 | 0.00 | 0.00 | 78 | 1024.3 |
| 20260830205749 | 77 | 347 | 2.0 | 3.0 | 0.00 | 0.00 | 0.00 | 78 | 1023.8 |
| 20260830205244 | 78 | 342 | 2.0 | 2.0 | 0.00 | 0.00 | 0.00 | 76 | 1024.2 |
| 20260830204740 | 78 | 265 | 0.0 | 2.0 | 0.00 | 0.00 | 0.00 | 76 | 1023.7 |
| 20260830204238 | 78 | 8 | 2.0 | 3.0 | 0.00 | 0.00 | 0.00 | 75 | 1023.8 |
| 20260830203734 | 79 | 333 | 0.0 | 1.0 | 0.00 | 0.00 | 0.00 | 71 | 1024.0 |
| 20260830203230 | 79 | 324 | 2.0 | 3.0 | 0.00 | 0.00 | 0.00 | 70 | 1023.8 |
| 20260830202729 | 80 | 1 | 3.0 | 4.0 | 0.00 | 0.00 | 0.00 | 69 | 1023.8 |
| 20260830202225 | 80 | 344 | 3.0 | 5.0 | 0.00 | 0.00 | 0.00 | 69 | 1023.7 |
| 20260830201724 | 79 | 24 | 4.0 | 6.0 | 0.00 | 0.00 | 0.00 | 69 | 1023.8 |
| 20260830201220 | 80 | 13 | 4.0 | 7.0 | 0.00 | 0.00 | 0.00 | 67 | 1023.7 |
| 20260830200715 | 80 | 316 | 2.0 | 3.0 | 0.00 | 0.00 | 0.00 | 67 | 1024.0 |
| 20260830200215 | 81 | 7 | 4.0 | 5.0 | 0.00 | 0.00 | 0.00 | 65 | 1023.8 |
| 20260830195710 | 81 | 341 | 3.0 | 10.0 | 0.00 | 0.00 | 0.00 | 65 | 1023.8 |
| 20260830195208 | 80 | 343 | 4.0 | 4.0 | 0.00 | 0.00 | 0.00 | 67 | 1023.9 |
| 20260830194707 | 80 | 85 | 4.0 | 7.0 | 0.00 | 0.00 | 0.00 | 67 | 1024.2 |
| 20260830194202 | 79 | 83 | 2.0 | 7.0 | 0.00 | 0.00 | 0.00 | 68 | 1024.1 |
| 20260830193656 | 79 | 83 | 6.0 | 7.0 | 0.00 | 0.00 | 0.00 | 72 | 1024.2 |
| 20260830193150 | 80 | 30 | 6.0 | 11.0 | 0.00 | 0.00 | 0.00 | 69 | 1024.2 |
| 20260830192646 | 80 | 48 | 3.0 | 6.0 | 0.00 | 0.00 | 0.00 | 70 | 1024.1 |
| 20260830192141 | 80 | 37 | 5.0 | 8.0 | 0.00 | 0.00 | 0.00 | 69 | 1024.2 |
| 20260830191637 | 82 | 136 | 2.0 | 11.0 | 0.00 | 0.00 | 0.00 | 68 | 1024.3 |
| 20260830191131 | 82 | 15 | 4.0 | 8.0 | 0.00 | 0.00 | 0.00 | 65 | 1024.7 |
| 20260830190627 | 82 | 23 | 1.0 | 3.0 | 0.00 | 0.00 | 0.00 | 73 | 1024.7 |
| 20260830190121 | 81 | 49 | 4.0 | 8.0 | 0.00 | 0.00 | 0.00 | 65 | 1024.8 |
| 20260830185615 | 81 | 344 | 4.0 | 9.0 | 0.00 | 0.00 | 0.00 | 65 | 1024.9 |
| 20260830185111 | 80 | 312 | 2.0 | 5.0 | 0.00 | 0.00 | 0.00 | 72 | 1024.8 |
| 20260830184610 | 80 | 36 | 4.0 | 5.0 | 0.00 | 0.00 | 0.00 | 66 | 1024.8 |
| 20260830184110 | 80 | 17 | 3.0 | 7.0 | 0.00 | 0.00 | 0.00 | 68 | 1024.7 |
| 20260830183605 | 79 | 64 | 2.0 | 3.0 | 0.00 | 0.00 | 0.00 | 71 | 1025.0 |
| 20260830183101 | 80 | 72 | 5.0 | 6.0 | 0.00 | 0.00 | 0.00 | 67 | 1025.1 |
| 20260830182555 | 84 | 30 | 8.0 | 9.0 | 0.00 | 0.00 | 0.00 | 64 | 1025.1 |
| 20260830182052 | 83 | 238 | 5.0 | 6.0 | 0.00 | 0.00 | 0.00 | 60 | 1024.8 |
| 20260830181548 | 83 | 226 | 5.0 | 6.0 | 0.00 | 0.00 | 0.00 | 61 | 1025.3 |
| 20260830181047 | 82 | 250 | 0.0 | 4.0 | 0.00 | 0.00 | 0.00 | 66 | 1025.1 |
| 20260830180547 | 79 | 89 | 0.0 | 0.0 | 0.00 | 0.00 | 0.00 | 69 | 1025.1 |
| 20260830180046 | 80 | 28 | 1.0 | 5.0 | 0.00 | 0.00 | 0.00 | 66 | 1025.4 |
| 20260830175545 | 80 | 343 | 3.0 | 6.0 | 0.00 | 0.00 | 0.00 | 65 | 1025.3 |
| 20260830175041 | 80 | 267 | 1.0 | 3.0 | 0.00 | 0.00 | 0.00 | 67 | 1025.1 |
| 20260830174536 | 82 | 332 | 8.0 | 11.0 | 0.00 | 0.00 | 0.00 | 62 | 1025.4 |
| 20260830174031 | 84 | 337 | 5.0 | 5.0 | 0.00 | 0.00 | 0.00 | 58 | 1025.4 |
| 20260830173527 | 84 | 226 | 5.0 | 5.0 | 0.00 | 0.00 | 0.00 | 56 | 1025.1 |
| 20260830173021 | 83 | 168 | 2.0 | 7.0 | 0.00 | 0.00 | 0.00 | 57 | 1025.3 |
| 20260830172519 | 84 | 219 | 8.0 | 9.0 | 0.00 | 0.00 | 0.00 | 56 | 1025.2 |
| 20260830172015 | 84 | 225 | 5.0 | 10.0 | 0.00 | 0.00 | 0.00 | 56 | 1025.3 |
| 20260830171509 | 84 | 212 | 2.0 | 6.0 | 0.00 | 0.00 | 0.00 | 59 | 1025.3 |
| 20260830171009 | 83 | 231 | 1.0 | 2.0 | 0.00 | 0.00 | 0.00 | 63 | 1025.4 |
| 20260830170504 | 82 | 271 | 1.0 | 4.0 | 0.00 | 0.00 | 0.00 | 63 | 1025.3 |
| 20260830170002 | 82 | 16 | 3.0 | 7.0 | 0.00 | 0.00 | 0.00 | 66 | 1025.3 |
| 20260830165458 | 81 | 254 | 2.0 | 5.0 | 0.00 | 0.00 | 0.00 | 64 | 1025.4 |
| 20260830164954 | 82 | 16 | 5.0 | 6.0 | 0.00 | 0.00 | 0.00 | 66 | 1025.7 |
| 20260830164449 | 80 | 253 | 2.0 | 4.0 | 0.00 | 0.00 | 0.00 | 65 | 1025.6 |
| 20260830163946 | 81 | 188 | 0.0 | 4.0 | 0.00 | 0.00 | 0.00 | 64 | 1025.9 |
| 20260830163443 | 81 | 251 | 4.0 | 6.0 | 0.00 | 0.00 | 0.00 | 66 | 1025.8 |
| 20260830162941 | 81 | 329 | 2.0 | 4.0 | 0.00 | 0.00 | 0.00 | 66 | 1025.9 |
| 20260830162437 | 79 | 328 | 1.0 | 3.0 | 0.00 | 0.00 | 0.00 | 68 | 1025.7 |
| 20260830161932 | 81 | 34 | 3.0 | 4.0 | 0.00 | 0.00 | 0.00 | 65 | 1025.7 |
| 20260830161431 | 80 | 16 | 2.0 | 4.0 | 0.00 | 0.00 | 0.00 | 65 | 1025.9 |
| 20260830160926 | 79 | 335 | 0.0 | 4.0 | 0.00 | 0.00 | 0.00 | 69 | 1025.7 |
| 20260830160423 | 79 | 4 | 3.0 | 5.0 | 0.00 | 0.00 | 0.00 | 70 | 1026.0 |
| 20260830155917 | 80 | 18 | 3.0 | 5.0 | 0.00 | 0.00 | 0.00 | 67 | 1025.9 |
| 20260830155414 | 79 | 309 | 0.0 | 2.0 | 0.00 | 0.00 | 0.00 | 68 | 1026.1 |
| 20260830154908 | 80 | 37 | 3.0 | 7.0 | 0.00 | 0.00 | 0.00 | 66 | 1026.0 |
| 20260830154404 | 80 | 53 | 3.0 | 3.0 | 0.00 | 0.00 | 0.00 | 70 | 1026.0 |
| 20260830153901 | 78 | 101 | 0.0 | 2.0 | 0.00 | 0.00 | 0.00 | 68 | 1026.0 |
| 20260830153356 | 79 | 325 | 2.0 | 5.0 | 0.00 | 0.00 | 0.00 | 68 | 1026.0 |
| 20260830152855 | 79 | 5 | 5.0 | 11.0 | 0.00 | 0.00 | 0.00 | 69 | 1026.0 |
| 20260830152350 | 80 | 266 | 3.0 | 7.0 | 0.00 | 0.00 | 0.00 | 66 | 1026.3 |
| 20260830151844 | 81 | 217 | 2.0 | 6.0 | 0.00 | 0.00 | 0.00 | 67 | 1026.0 |
| 20260830151343 | 78 | 264 | 2.0 | 2.0 | 0.00 | 0.00 | 0.00 | 69 | 1026.0 |
| 20260830150839 | 78 | 82 | 1.0 | 3.0 | 0.00 | 0.00 | 0.00 | 74 | 1025.9 |
| 20260830150338 | 77 | 50 | 0.0 | 2.0 | 0.00 | 0.00 | 0.00 | 74 | 1025.8 |
| 20260830145833 | 77 | 89 | 0.0 | 2.0 | 0.00 | 0.00 | 0.00 | 77 | 1025.9 |
| 20260830145328 | 76 | 67 | 0.0 | 3.0 | 0.00 | 0.00 | 0.00 | 73 | 1026.1 |
| 20260830144823 | 75 | 1 | 1.0 | 2.0 | 0.00 | 0.00 | 0.00 | 78 | 1026.1 |
| 20260830144319 | 75 | 54 | 1.0 | 3.0 | 0.00 | 0.00 | 0.00 | 77 | 1026.1 |
| 20260830143814 | 73 | 44 | 0.0 | 1.0 | 0.00 | 0.00 | 0.00 | 81 | 1026.1 |
| 20260830143309 | 73 | 6 | 0.0 | 2.0 | 0.00 | 0.00 | 0.00 | 79 | 1026.0 |
| 20260830142803 | 73 | 79 | 2.0 | 2.0 | 0.00 | 0.00 | 0.00 | 80 | 1026.2 |
| 20260830142258 | 71 | 69 | 0.0 | 2.0 | 0.00 | 0.00 | 0.00 | 81 | 1026.2 |
| 20260830141754 | 71 | 48 | 0.0 | 2.0 | 0.00 | 0.00 | 0.00 | 81 | 1026.1 |
| 20260830141248 | 70 | 88 | 1.0 | 2.0 | 0.00 | 0.00 | 0.00 | 82 | 1026.1 |
| 20260830140749 | 70 | 88 | 1.0 | 2.0 | 0.00 | 0.00 | 0.00 | 84 | 1026.4 |
| 20260830140243 | 69 | 52 | 1.0 | 2.0 | 0.00 | 0.00 | 0.00 | 85 | 1026.2 |
| 20260830135738 | 68 | 47 | 2.0 | 2.0 | 0.00 | 0.00 | 0.00 | 87 | 1026.1 |
| 20260830135234 | 67 | 67 | 2.0 | 2.0 | 0.00 | 0.00 | 0.00 | 90 | 1026.0 |